User: anonymous   Login
Location: Unspecified
(0.0000°N, 0.0000°E)
Time: 04:58:29
(UTC+00:00)
Language:

SO-67 - Orbit

View from above orbital plane
View from above orbital plane
View from above satellite
View from above satellite

Ground track
Ground track

The orbit data is extracted from the following two-line orbital elements,

1 35870U 09049F   15123.82877164  .00011302  00000-0  27658-3 0  9998
2 35870 097.1384 141.1321 0002827 067.3027 031.1352 15.40933088313287
Epoch (UTC): 03 May 2015 19:53:25
Eccentricity: 0.0002827
inclination: 97.1384°
perigee height: 441 km
apogee height: 445 km
right ascension of ascending node: 141.1321°
argument of perigee: 67.3027°
revolutions per day: 15.40933088
mean anomaly at epoch: 31.1352°
orbit number at epoch: 31328

The dashed part of the orbit path shows where the satellite is in the earth's shadow,  

DLR